TimeAKDT,TemperatureF,Dew PointF,Humidity,Sea Level PressureIn,VisibilityMPH,Wind Direction,Wind SpeedMPH,Gust SpeedMPH,PrecipitationIn,Events,Conditions,WindDirDegrees,DateUTC
12:53 AM,35.1,30.0,82,30.04,10.0,SW,11.5,-,N/A,,Partly Cloudy,220,2012-10-07 08:53:00
1:53 AM,34.0,28.9,82,30.05,10.0,SSW,9.2,-,N/A,,Scattered Clouds,210,2012-10-07 09:53:00
2:53 AM,35.1,30.9,85,30.06,10.0,SSW,10.4,-,N/A,,Mostly Cloudy,210,2012-10-07 10:53:00
3:53 AM,35.1,30.0,82,30.06,10.0,SSW,11.5,-,N/A,,Overcast,210,2012-10-07 11:53:00
4:53 AM,34.0,28.9,82,30.06,10.0,SW,10.4,-,N/A,,Overcast,220,2012-10-07 12:53:00
5:53 AM,33.1,28.0,82,30.06,10.0,SSW,8.1,-,0.00,,Overcast,210,2012-10-07 13:53:00
6:53 AM,33.1,28.0,82,30.05,10.0,SSW,12.7,-,N/A,,Scattered Clouds,200,2012-10-07 14:53:00
7:53 AM,34.0,28.0,79,30.06,10.0,SSW,11.5,-,N/A,,Mostly Cloudy,210,2012-10-07 15:53:00
8:53 AM,34.0,28.0,79,30.07,10.0,SSW,10.4,-,N/A,,Mostly Cloudy,210,2012-10-07 16:53:00
9:53 AM,34.0,27.0,75,30.07,10.0,SW,13.8,-,N/A,,Overcast,220,2012-10-07 17:53:00
10:53 AM,36.0,28.9,76,30.08,10.0,SW,8.1,-,N/A,,Overcast,220,2012-10-07 18:53:00
11:53 AM,36.0,28.0,73,30.09,10.0,SW,13.8,-,N/A,,Overcast,220,2012-10-07 19:53:00
12:53 PM,37.0,28.9,73,30.09,10.0,SW,10.4,-,N/A,,Overcast,220,2012-10-07 20:53:00
1:53 PM,37.9,28.9,70,30.10,10.0,SSW,11.5,-,N/A,,Overcast,210,2012-10-07 21:53:00
2:53 PM,37.9,30.0,73,30.11,10.0,SW,12.7,-,N/A,,Overcast,220,2012-10-07 22:53:00
3:53 PM,37.9,30.9,76,30.10,10.0,WSW,12.7,-,N/A,,Overcast,240,2012-10-07 23:53:00
4:53 PM,37.9,32.0,79,30.10,10.0,West,12.7,-,N/A,,Overcast,260,2012-10-08 00:53:00
5:53 PM,36.0,33.1,89,30.12,10.0,SW,8.1,-,N/A,,Overcast,230,2012-10-08 01:53:00
6:53 PM,35.1,33.1,92,30.12,10.0,SW,8.1,-,N/A,,Overcast,230,2012-10-08 02:53:00
7:53 PM,34.0,32.0,92,30.13,10.0,SW,9.2,-,N/A,,Overcast,230,2012-10-08 03:53:00
8:27 PM,33.8,32.0,93,30.12,10.0,SW,11.5,-,N/A,,Mostly Cloudy,230,2012-10-08 04:27:00
8:53 PM,35.1,32.0,89,30.13,9.0,WSW,10.4,-,0.00,Snow,Light Snow,250,2012-10-08 04:53:00
9:53 PM,34.0,30.9,89,30.14,10.0,WSW,9.2,-,N/A,,Overcast,240,2012-10-08 05:53:00
10:46 PM,33.8,32.0,93,30.14,10.0,WSW,10.4,-,N/A,,Overcast,250,2012-10-08 06:46:00
10:53 PM,33.1,32.0,96,30.15,9.0,WSW,8.1,-,N/A,,Overcast,240,2012-10-08 06:53:00
11:25 PM,32.0,30.2,93,30.14,9.0,WSW,9.2,-,N/A,,Scattered Clouds,240,2012-10-08 07:25:00
11:42 PM,32.0,32.0,100,30.15,2.5,WSW,8.1,-,N/A,,Mostly Cloudy,240,2012-10-08 07:42:00
11:53 PM,33.1,32.0,96,30.16,1.8,SW,8.1,-,N/A,,Overcast,230,2012-10-08 07:53:00